{"data":{"norad_id":64737,"epoch":"2026-09-20T12:46:35.247360Z","epoch_age_seconds":124849,"freshness":"FRESH","line1":"1 64737U 25144P   26263.53235240  .00025490  00000+0  76284-3 0  9995","line2":"2 64737  53.1601 355.2733 0001026  77.4900 282.6218 15.34406458 69553","mean_motion":15.34406458,"eccentricity":0.0001026,"inclination_deg":53.1601,"raan_deg":355.2733,"arg_perigee_deg":77.49,"mean_anomaly_deg":282.6218,"bstar":0.00076284,"rev_number":6955,"period_min":93.847363095496,"perigee_km":461.98217749817,"apogee_km":463.38591397676,"semimajor_km":6840.8210457375,"source":"CELESTRAK","updated_at":"2026-09-21T09:00:35.411504Z"}}